Regional Weather Roundup
Issued by NWS

Home | Current Version | Previous Version | Graphics & Text | Print | Product List | Glossary On
Versions: 1 2 3 4 5 6 7 8 9 10 11 12 13 14 15 16 17 18 19 20 21 22 23 24 25 26 27 28 29 30 31 32 33 34 35 36 37 38 39 40 41 42 43 44 45 46 47 48 49 50
000
ASUS45 KTFX 220110
RWRMT
MONTANA REGIONAL WEATHER ROUNDUP
NATIONAL WEATHER SERVICE GREAT FALLS MT
700 PM MDT WED JUN 21 2017

NOTE: "FAIR" INDICATES FEW OR NO CLOUDS BELOW 12000 FEET WITH NO
SIGNIFICANT WEATHER AND/OR OBSTRUCTIONS TO VISIBILITY.

MTZ001>007-043-220200-
WEST OF THE DIVIDE

CITY           SKY/WX    TMP DP  RH WIND       PRES   REMARKS
KALISPELL      MOSUNNY   71  31  22 W16G22    29.94R
MISSOULA       SUNNY     75  30  19 W18G25    29.98S
BUTTE          SUNNY     74  29  19 NW17G28   30.00S
MULLAN PASS    SUNNY     57  28  33 VRB3      30.13S
ANACONDA         N/A     73  25  16 W16G23    29.99R
DEER LODGE       N/A     73  27  17 NW16G28   29.99R
EUREKA           N/A     72  30  21 MISG      29.94S
HAMILTON         N/A     75  28  17 SW13      29.99S
LIBBY            N/A     73  28  19 SW7G16    29.95F
$$

MTZ008-052>055-220200-
SOUTHWEST MONTANA

CITY           SKY/WX    TMP DP  RH WIND       PRES   REMARKS
BOZEMAN        SUNNY     79  38  22 NW16      29.88F
DILLON         SUNNY     75  36  24 W24       29.95F
W YELLOWSTONE  CLOUDY    73  48  40 SW13      30.02F
ENNIS          SUNNY     81  36  19 NW10      30.00S
THREE FORKS      N/A     82  31  16 W14       29.90S
$$

MTZ009-010-012-014-046-048-049-054-220200-
EAST SLOPES AND CENTRAL MONTANA

CITY           SKY/WX    TMP DP  RH WIND       PRES   REMARKS
CUT BANK       MOSUNNY   69  26  20 W25G35    29.87R
GREAT FALLS    SUNNY     75  24  15 W25G33    29.84R
MALMSTROM AFB  SUNNY     76  25  15 W23       29.85R
HELENA         SUNNY     79  32  18 NW16G28   29.90S
CHOTEAU          N/A     72  25  17 W20G26    29.90R
$$

MTZ011-013-016-021-045-047-050-051-220200-
NORTH CENTRAL MONTANA

CITY           SKY/WX    TMP DP  RH WIND       PRES   REMARKS
HAVRE          PTSUNNY   68  40  35 N20G29    29.78R
LEWISTOWN      SUNNY     75  28  17 NW23G35   29.84S
N BAR RANCH      N/A     75  28  17 NW17G24   29.89R
CHINOOK          N/A     64  39  39 N18G30    29.78R
FORT BENTON      N/A     79  27  14 MISG      29.80R
$$

MTZ017>020-022>027-061-062-220200-
NORTHEAST MONTANA

CITY           SKY/WX    TMP DP  RH WIND       PRES   REMARKS
GLASGOW        CLOUDY    76  36  23 VRB3      29.72F
JORDAN           N/A     78  34  20 E12       29.75F
SIDNEY         SUNNY     77  36  22 N8        29.77S
WOLF POINT     SUNNY     80  35  19 N9        29.74F
MALTA          CLOUDY    66  50  55 NW7G14    29.77R
PLENTYWOOD       N/A     72  34  25 NW13G20   29.77F
POPLAR           N/A     75  36  23 N6        29.75F
$$

MTZ028>42-056>058-220200-
SOUTHCENTRAL AND SOUTHEAST MONTANA

CITY           SKY/WX    TMP DP  RH WIND       PRES   REMARKS
BAKER          SUNNY     78  38  23 NE12G18   29.80F
BILLINGS       MOSUNNY   83  46  27 SE6       29.79S
LIVINGSTON     SUNNY     81  36  19 W20G29    29.85R
MILES CITY     MOSUNNY   84  35  17 E9        29.74S
BIG TIMBER     SUNNY     81  34  18 NW18G31   29.85S
FORSYTH          N/A     82  41  23 CALM      29.73F
ROUNDUP          N/A     85  30  13 W20       29.72R
$$

REGIONAL REPORTS...DAKOTAS

CITY           SKY/WX    TMP DP  RH WIND       PRES   REMARKS
WILLISTON      SUNNY     77  35  21 N9        29.78S
MINOT          SUNNY     75  34  22 NW17      29.74R
DICKINSON      SUNNY     75  34  22 NW8       29.78R
BEACH            N/A     75  37  25 N9G16     29.83S
CROSBY           N/A     72  36  26 NW14G21   29.77F
TIOGA            N/A     70  34  26 NW15G21   29.80S
WATFORD CITY     N/A     73  37  27 N12       29.77F
BISMARCK       SUNNY     80  40  23 NW13      29.75S
GRAND FORKS    SUNNY     79  55  43 NW17G25   29.61R
FARGO          SUNNY     80  64  58 SW9       29.60R
BUFFALO SD       N/A     81  40  23 N12       29.73S
RAPID CITY     SUNNY     87  50  27 N8        29.76F
$$

REGIONAL REPORTS...WYOMING/IDAHO/WASHINGTON

CITY           SKY/WX    TMP DP  RH WIND       PRES   REMARKS
GILLETTE       SUNNY     83  50  31 NE12      29.80F
SHERIDAN       SUNNY     83  53  35 CALM      29.81F
BUFFALO WY     SUNNY     77  52  41 N9        29.87F
CODY           SUNNY     79  46  31 N15       29.88R
YELLOWSTONE LA   N/A     70  41  34 MISG      30.13F
IDAHO FALLS    SUNNY     82  48  30 S24G33    29.91F
SALMON         SUNNY    N/A N/A N/A MISG        N/A
BOISE          SUNNY     83  31  15 NW16      29.95F
SPOKANE        MOSUNNY   79  26  14 W16G25    30.03F
$$

REGIONAL REPORTS...ALBERTA

CITY           SKY/WX    TMP DP  RH WIND       PRES   REMARKS
EDMONTON       PTSUNNY   61  34  36 NW16G31   29.80R
CALGARY        PTSUNNY   61  28  29 N14       29.89R
LETHBRIDGE     PTSUNNY   64  48  55 W12       29.84R
MEDICINE HAT   TSTM      59  46  63 W7        29.82R
WATERTON GATE    N/A     61  32  33 W8          N/A
MILK RIVER       N/A     66  43  42 NW14G28     N/A
$$

REGIONAL REPORTS...SASKATCHEWAN

CITY           SKY/WX    TMP DP  RH WIND       PRES   REMARKS
SWIFT CURRENT  SUNNY     64  36  34 NW16G23   29.78S
REGINA         PTSUNNY   68  34  28 W23G36    29.72S
SASKATOON      CLOUDY    66  34  30 W29G39    29.65S
CYPRESS HILLS    N/A     59  34  38 NW8         N/A
VAL MARIE        N/A     55  48  76 N16         N/A
ROCKGLEN         N/A     64  36  34 N9          N/A
$$



USA.gov is the U.S. government's official web portal to all federal, state and local government web resources and services.